Location: ??
(35.5052°N, 139.7262°E)
Time: 19:25:34
(UTC+00:00)

Cosmos 1932 - Pass Details

Date: 23 October 2021
Orbit: 943 x 987 km, 65.0° (Epoch: 01 December)

Event Time Altitude Azimuth Distance (km) Brightness Sun altitude
Rises 10:24:02 0° 332° (NNW) 3,617 7.9 -30.7°
Reaches altitude 10° 10:26:35 10° 333° (NNW) 2,673 7.2 -31.2°
Enters shadow 10:31:04 50° 344° (NNW) 1,203 5.0 -32.1°
